Regional Weather Roundup
Issued by NWS Charleston, SC

Current Version | Previous Version | Text Only | Print | Product List | Glossary Off
Versions: 1 2 3 4 5 6 7 8 9 10 11 12 13 14 15 16 17 18 19 20 21 22 23 24 25 26 27 28 29 30 31 32 33 34 35 36 37 38 39 40 41 42 43 44 45 46 47 48 49 50
000 ASUS42 KCHS 260412 RWRCHS Regional Weather Roundup National Weather Service Charleston SC 1200 AM EDT THU APR 26 2018 NOTE: "fair" indicates few or no clouds below 12,000 feet with no significant weather and/or obstructions to visibility. Not all stations are quality controlled. Use data with caution, especially dewpoint observations. SCZ027-030-031-034>040-042>050-260500- ...Southeast South Carolina... CITY SKY/WX TMP DP RH WIND PRES REMARKS N Charleston FAIR 65 56 72 W7 29.85S Waterfront Prk N/A 67 58 72 VRB2 29.70S Mount Pleasant FAIR 64 57 77 CALM 29.85S Johns Island FAIR 64 57 77 SW5 29.86S Pinopolis N/A 68 61 77 SW5 29.76S Moncks Corner FAIR 63 55 77 CALM 29.84F Summerville FAIR 61 55 82 CALM 29.86S Beaufort MCAS FAIR 64 56 75 W7 29.87S Beaufort Arpt FAIR 64 55 72 W7 29.86F Hilton Head Is CLOUDY 66 55 68 VRB3 29.88S Walterboro FAIR 63 54 72 W6 29.87R Allendale FAIR 63 55 77 CALM 29.86S ...Southern Midlands and Pee Dee... CITY SKY/WX TMP DP RH WIND PRES REMARKS Georgetown FAIR 55 55 100 CALM 29.85S Kingstree CLOUDY 61 59 94 CALM 29.83F Orangeburg FAIR 60 55 83 SW5 29.85S Barnwell NOT AVBL Aiken NOT AVBL Manning CLOUDY 57 54 88 CALM 29.83F Columbia MOCLDY 69 55 60 N5 29.83S Sumter CLOUDY 62 57 84 CALM 29.81S Florence MOCLDY 65 59 81 CALM 29.84S Myrtle Beach FAIR 63 59 87 CALM 29.84F N Myrtle Beach FAIR 61 59 93 CALM 29.83S $$ GAZ063-065-086>088-099>101-113>116-118-119-134>141-150-260500- ...Southeast Georgia... CITY SKY/WX TMP DP RH WIND PRES REMARKS Savannah Arpt FAIR 62 54 74 W5 29.88F Hunter AAF FAIR 61 53 76 W5 29.86F Fort Stewart FAIR 61 54 77 W5 29.87F Statesboro FAIR 58 52 80 CALM 29.88S Sylvania FAIR 59 57 92 CALM 29.88S Claxton FAIR 58 56 94 CALM 29.90S ...CSRA, Central and far Southeast Georgia... CITY SKY/WX TMP DP RH WIND PRES REMARKS Thomson FAIR 57 53 86 NW3 29.92S Augusta-Bush FAIR 61 55 81 W6 29.86S Augusta-Daniel FAIR 64 54 69 W6 29.87S Swainsboro FAIR 59 54 82 CALM 29.90S Vidalia FAIR 61 52 72 SW3 29.90F Eastman FAIR 62 50 65 CALM 29.94S Hazlehurst FAIR 62 55 79 CALM 29.90F Alma FAIR 58 54 86 CALM 29.91S Waycross FAIR 62 57 84 CALM 29.91F Jesup NOT AVBL Baxley FAIR 57 55 94 CALM 29.90F Brunswick FAIR 61 55 82 CALM 29.90S Saint Simons FAIR 67 56 67 NW3 29.89S $$ SCZ027-028-034-036>038-045-046-048>050-GAZ119-141-260500- ...Lake and Supplemental Coastal Observations... STATION/POSITION TIME TEMP WIND PRES WAVE SWELL AIR SEA DIR/SP/G HT/PER HT/PER/DIR (UTC) (F) (DEG/KT/KT) (MB) (FT/S) (FT/S/D) Winyah Bay 0245 64 260/ 2 1011.0 Lake Murray 0320 66 300/ 2/ 5 1009.8 ACE Basin NERRS 0245 66 350/ 1 N/A Fort Pulaski 0342 66 67 280/ 4/ 5 1011.9F Sapelo Island 0300 66 320/ 3 1012.0 $$ ANZ835-935-AMZ111-154-330-350-352-354-370-450-454-472-260500- ...C-MAN and Buoy Observations... STATION/POSITION TIME TEMP WIND PRES WAVE SWELL AIR SEA DIR/SP/G HT/PER HT/PER/DIR (UTC) (F) (DEG/KT/KT) (MB) (FT/S) (FT/S/D) Buoy 41004 0350 69 240/ 12/ 16 1010.7F 4/10 3/ 90/10 Buoy 41008 0350 68 67 270/ 6/ 6 1011.8F 3/ 9 3/ 80/ 9 Folly Beach CMAN 0300 66 240/ 5/ 8 1011.6R Capers Nearshore 0308 67 66 230/ 10/ 12 1011.6R Fripp Nearshore 0308 68 66 280/ 10/ 14 1011.2S STATION/POSITION TIME TEMP WIND PRES WAVE SWELL AIR SEA DIR/SP/G HT/PER HT/PER/DIR (UTC) (F) (DEG/KT/KT) (MB) (FT/S) (FT/S/D) 5E St. Marys GA 0330 69 N/A 2/ 9 Frying Pan Buoy 0350 68 69 250/ 10/ 14 1010.5R 5/ 9 5/110/ 9 Buoy 41025 0350 68 70 260/ 16/ 19 1008.4R 7/ 9 5/110/ 9 Cape Lookout NC 0300 250/ 7/ 7 1009.5R Buoy 41002 0350 69 73 220/ 14/ 17 1011.6S 6/ 9 5/100/ 9 Buoy 41010 0350 74 76 210/ 4/ 8 1013.7F 6/ 9 5/ 80/ 9 St Augustine FL 0400 68 68 260/ 8/ 10 1013.4F $$

USA.gov is the U.S. government's official web portal to all federal, state and local government web resources and services.